[[{"header":{"parameterUnit":"m.s-1","parameterCategory":1,"la1":30.2991,"la2":30.254,"lo1":-89.0895,"lo2":-89.0444,"dy":0.0017,"dx":0.0017,"nx":28,"ny":28,"refTime":"2024-08-12T03:00:00:Z","depth":0,"parameterNumber":2,"parameterNumberName":"U-component_of_WINDS"},"data":[0,0,0,0,0,0,0,0,0,0,0,0,0,0,0,0,0,0,0,0,0,0,0,0,0,0,0,0,0,0,0,0,0,0,0,0,0,0,0,0,0,0,0,0,0,0,0,0,0,0,0,0,0,0,0,0,0,0,3.3501,3.3501,0,3.3553,3.3554,3.3554,3.3476,3.3473,3.347,3.3467,3.3524,3.3528,3.3532,0,0,0,0,0,0,0,0,0,0,0,0,0,3.3332,3.3336,3.3501,3.3501,3.3502,3.3553,3.3554,3.3554,3.3476,3.3473,3.3469,3.3466,3.3522,3.3527,3.3532,0,0,0,0,0,0,0,0,0,0,0,0,0,3.3397,3.3337,3.3501,3.3469,3.3467,3.3553,3.3554,3.3555,3.3477,3.3473,3.3468,3.3465,3.3521,3.3527,3.3533,3.3653,0,0,3.3552,3.3554,0,0,0,0,0,0,0,0,3.3394,3.3403,3.3473,3.3471,3.3469,3.3503,3.3515,3.3588,3.3478,3.3473,3.3467,3.3463,3.3521,3.3526,3.3545,3.3656,3.3658,3.3552,3.3556,3.3558,3.356,0,0,0,0,0,0,0,3.3389,3.3401,3.3521,3.3474,3.3471,3.3452,3.3457,3.3528,3.3519,3.3473,3.3467,3.3475,3.3519,3.354,3.3546,3.3659,3.3552,3.3557,3.3561,3.3563,3.3866,3.3871,0,0,0,0,0,0,3.3388,3.3398,3.352,3.3523,3.342,3.3458,3.3464,3.3497,3.3518,3.3518,3.3478,3.3471,3.3531,3.3539,3.3548,3.3687,3.3558,3.3564,3.3568,3.3862,3.3867,3.3872,0,0,0,0,0,0,3.3385,3.34,3.3518,3.3459,3.3472,3.3466,3.3503,3.35,3.3521,3.3522,3.352,3.3501,3.3528,3.3539,3.3626,3.3688,3.3567,3.3572,3.3857,3.3864,3.387,3.3968,0,0,0,0,0,0,3.3381,3.3399,3.3445,3.346,3.3476,3.3596,3.3507,3.3504,3.3531,3.3522,3.3543,3.3543,3.3526,3.3618,3.3633,3.3694,3.3577,3.3851,3.386,3.3868,3.3959,3.3977,3.3992,0,0,0,0,0,3.3375,3.3473,3.3448,3.3463,3.3533,3.36,3.3608,3.3586,3.3537,3.3582,3.3582,3.3542,3.3679,3.3627,3.3643,3.3708,3.3847,3.3858,3.3867,3.3952,3.3973,3.3992,0,0,0,0,0,0,3.3467,3.3474,3.3447,3.3553,3.3576,3.3586,3.3643,3.361,3.3649,3.3639,3.361,3.3616,3.3708,3.3717,3.3659,3.3823,3.3755,3.3768,3.3814,3.3834,3.3851,3.3846,3.3582,0,0,0,0,0,3.3499,3.3552,3.3556,3.3649,3.3661,3.365,3.3679,3.3659,3.3682,3.3692,3.3699,3.3724,3.3771,3.3804,3.3848,3.396,3.3962,3.4012,3.4029,3.4042,3.4054,3.4109,3.413,3.3905,3.3904,3.3904,0,0,3.3567,3.3577,3.3613,3.3667,3.3683,3.3737,3.3659,3.3722,3.3761,3.3702,3.3783,3.3789,3.3814,3.3913,3.3957,3.3923,3.4116,3.4055,3.4066,3.407,3.4122,3.4143,3.4162,3.3911,3.391,3.3909,0,0,3.3718,3.3732,3.3809,3.3825,3.3849,3.384,3.3859,3.3874,3.3874,3.3955,3.391,3.3958,3.4042,3.406,3.4081,3.4235,3.4198,3.4251,3.4336,3.4391,3.4409,3.4424,3.4476,3.4495,3.4262,3.4263,3.4263,0,3.3799,3.3879,3.3853,3.3916,3.394,3.3887,3.3963,3.3981,3.4019,3.4036,3.3997,3.4099,3.4113,3.4213,3.425,3.427,3.4288,3.4247,3.4408,3.4424,3.4438,3.4486,3.4506,3.4268,3.4268,3.4267,3.4267,0,3.3976,3.4032,3.4091,3.4126,3.4157,3.4227,3.421,3.4244,3.4222,3.4217,3.4298,3.4313,3.4357,3.438,3.436,3.4477,3.4454,3.4413,3.4343,3.4466,3.451,3.4529,3.4277,3.4275,3.4273,3.4272,0,0,3.4187,3.4203,3.4225,3.4238,3.4259,3.4302,3.4369,3.4411,3.4439,3.4467,3.452,3.4591,3.4551,3.4575,3.4556,3.4604,3.472,3.4556,3.4556,3.4583,3.4846,3.4875,3.4897,3.4697,3.47,3.4703,3.4842,0,3.4334,3.4447,3.4423,3.4534,3.4584,3.4533,3.459,3.4609,3.4606,3.4647,3.4644,3.4693,3.4639,3.4652,3.4698,3.4697,3.4772,3.4687,3.4745,3.4747,3.4737,3.4921,3.4953,3.5083,3.486,3.4863,3.4865,0,3.452,3.4551,3.4667,3.4676,3.4696,3.4748,3.4782,3.4823,3.4842,3.4836,3.4861,3.4832,3.4896,3.4827,3.4915,3.4857,3.4879,3.4882,3.4887,3.4889,3.4812,3.4925,3.5125,3.5143,3.4894,3.4891,3.4889,0,3.4658,3.4729,3.4806,3.482,3.4833,3.487,3.4878,3.4893,3.4918,3.4949,3.4964,3.5003,3.5023,3.5053,3.5035,3.4987,3.5124,3.5055,3.5119,3.512,3.5149,3.5147,3.5352,3.5169,3.5168,3.5168,3.5168,0,3.4822,3.4894,3.4867,3.4914,3.4992,3.4964,3.5042,3.5044,3.5057,3.5103,3.5062,3.5106,3.508,3.5122,3.5108,3.518,3.5191,3.5187,3.5182,3.5189,3.5189,3.5201,3.5191,3.5173,3.5172,3.5171,3.517,0,3.4988,3.4974,3.5053,3.5058,3.5061,3.5118,3.5122,3.5165,3.5158,3.5216,3.5229,3.5218,3.5264,3.5249,3.53,3.5291,3.5381,3.5366,3.5374,3.5369,3.5433,3.5426,3.5651,3.5678,3.5481,3.5482,3.5484,0,3.5093,3.5146,3.5156,3.5183,3.5192,3.5237,3.5261,3.5236,3.5263,3.5287,3.5327,3.5369,3.5401,3.5478,3.5475,3.5512,3.5496,3.5572,3.5501,3.5505,3.5493,3.5489,3.5492,3.5586,3.5588,3.559,3.5591,0,3.5279,3.5268,3.5305,3.5338,3.5368,3.5393,3.5415,3.5439,3.5415,3.5447,3.5493,3.5518,3.5567,3.5609,3.5643,3.565,3.5616,3.5614,3.563,3.5636,3.5637,3.5634,3.5409,3.5608,3.5606,3.5605,3.5604,3.5604,3.5415,3.5458,3.5471,3.5512,3.5525,3.5545,3.5584,3.5581,3.5619,3.5656,3.5639,3.5691,3.5706,3.5747,3.5759,3.5798,3.5769,3.5794,3.5799,3.5805,3.5811,3.5633,3.5805,3.5805,3.5804,3.5804,3.5803,0,3.5596,3.5601,3.5639,3.5668,3.57,3.5664,3.5686,3.5714,3.576,3.5777,3.5808,3.5859,3.5899,3.5898,3.5934,3.5966,3.5951,3.5976,3.5972,3.5973,3.5838,3.5818,3.5987,3.5987,3.5987,3.5987,3.5987,3.5987,3.5694,3.5763,3.5753,3.5829,3.5833,3.5882,3.5897,3.5915,3.5927,3.5985,3.6017,3.6015,3.6024,3.606,3.6094,3.6093,3.6106,3.6137,3.6129,3.6002,3.5984,3.5966,3.5947,3.6141,3.6141,3.6261,3.6263,3.6263]},{"header":{"parameterUnit":"m.s-1","parameterCategory":1,"la1":30.2991,"la2":30.254,"lo1":-89.0895,"lo2":-89.0444,"dy":0.0017,"dx":0.0017,"nx":28,"ny":28,"refTime":"2024-08-12T03:00:00:Z","depth":0,"parameterNumber":3,"parameterNumberName":"V-component_of_WINDS"},"data":[0,0,0,0,0,0,0,0,0,0,0,0,0,0,0,0,0,0,0,0,0,0,0,0,0,0,0,0,0,0,0,0,0,0,0,0,0,0,0,0,0,0,0,0,0,0,0,0,0,0,0,0,0,0,0,0,0,0,4.4675,4.4676,0,4.476,4.4761,4.4762,4.4735,4.4733,4.4731,4.4729,4.4809,4.4813,4.4817,0,0,0,0,0,0,0,0,0,0,0,0,0,4.4481,4.4485,4.4675,4.4676,4.4678,4.476,4.4761,4.4763,4.4735,4.4733,4.4731,4.4729,4.4808,4.4812,4.4817,0,0,0,0,0,0,0,0,0,0,0,0,0,4.4565,4.4486,4.4675,4.4674,4.4675,4.476,4.4761,4.4763,4.4735,4.4733,4.473,4.4727,4.4806,4.4812,4.4818,4.4907,0,0,4.4835,4.4838,0,0,0,0,0,0,0,0,4.4561,4.4572,4.4673,4.4674,4.4675,4.4734,4.4722,4.4811,4.4736,4.4712,4.4729,4.4726,4.4786,4.4793,4.4815,4.4911,4.4914,4.4836,4.4839,4.4842,4.4843,0,0,0,0,0,0,0,4.4555,4.4569,4.4709,4.4674,4.4676,4.4666,4.4675,4.4739,4.4763,4.4714,4.4712,4.4723,4.4786,4.4809,4.4817,4.4915,4.4835,4.484,4.4844,4.4846,4.5086,4.5089,0,0,0,0,0,0,4.4549,4.4564,4.4706,4.4711,4.461,4.4672,4.4682,4.4718,4.4762,4.4767,4.4725,4.4721,4.4801,4.481,4.4819,4.4925,4.4841,4.4847,4.485,4.5083,4.5087,4.509,0,0,0,0,0,0,4.4545,4.4562,4.4703,4.4637,4.4654,4.4678,4.4719,4.4721,4.4745,4.4771,4.4774,4.4745,4.4799,4.4811,4.4885,4.4927,4.4849,4.4855,4.508,4.5085,4.5089,4.5139,0,0,0,0,0,0,4.454,4.4561,4.4597,4.4638,4.4658,4.477,4.4721,4.4725,4.4755,4.4751,4.4791,4.4794,4.4798,4.4877,4.4891,4.4934,4.4859,4.5076,4.5082,4.5087,4.5133,4.5144,4.5154,0,0,0,0,0,4.4533,4.4607,4.4599,4.4617,4.4704,4.4773,4.4783,4.4788,4.4759,4.4794,4.4811,4.4793,4.4921,4.4885,4.49,4.4946,4.5074,4.508,4.5087,4.5129,4.5142,4.5154,0,0,0,0,0,0,4.4568,4.4612,4.4604,4.4694,4.473,4.4768,4.4812,4.4802,4.4845,4.4839,4.4841,4.485,4.4926,4.4943,4.4902,4.5033,4.4993,4.5003,4.5019,4.5032,4.5042,4.5035,4.4864,0,0,0,0,0,4.4587,4.4641,4.4676,4.4751,4.477,4.4788,4.4818,4.4819,4.4855,4.4869,4.4891,4.4925,4.4972,4.5003,4.5049,4.5136,4.5143,4.5175,4.5185,4.5193,4.5201,4.5246,4.526,4.5112,4.5112,4.5112,0,0,4.4624,4.4655,4.4689,4.4759,4.4787,4.484,4.4801,4.486,4.4898,4.4877,4.4949,4.4966,4.5003,4.5084,4.5121,4.5101,4.5244,4.5202,4.5208,4.5212,4.5254,4.5268,4.5281,4.5116,4.5116,4.5115,0,0,4.4721,4.4751,4.4817,4.4846,4.4889,4.4901,4.4916,4.4956,4.4967,4.5039,4.5024,4.5069,4.5152,4.5178,4.5202,4.5308,4.5293,4.5323,4.5375,4.5419,4.543,4.5441,4.5476,4.5489,4.5331,4.5331,4.5331,0,4.4761,4.4844,4.4851,4.4911,4.4941,4.4927,4.4991,4.5018,4.5073,4.5093,4.507,4.5173,4.5197,4.5283,4.5309,4.533,4.5345,4.5317,4.5429,4.5439,4.5449,4.5482,4.5496,4.5334,4.5334,4.5334,4.5333,0,4.4891,4.4948,4.4996,4.5051,4.5087,4.5148,4.5162,4.5196,4.5194,4.5207,4.5279,4.5308,4.5358,4.5379,4.5376,4.5464,4.545,4.5428,4.5387,4.5466,4.5497,4.5511,4.5339,4.5338,4.5337,4.5336,0,0,4.5011,4.507,4.5087,4.5111,4.5158,4.52,4.526,4.5312,4.534,4.5378,4.5426,4.5496,4.5477,4.5504,4.5504,4.5543,4.5622,4.5517,4.5518,4.5533,4.5717,4.5732,4.5747,4.5613,4.5616,4.5618,4.5713,0,4.5109,4.5218,4.5225,4.5321,4.5373,4.536,4.5411,4.5444,4.5458,4.5501,4.5515,4.5564,4.5535,4.5551,4.559,4.5605,4.5659,4.5598,4.5655,4.5657,4.5644,4.5764,4.5779,4.5868,4.5726,4.5728,4.573,0,4.5238,4.5282,4.5385,4.5423,4.5445,4.5492,4.5538,4.5581,4.5616,4.5623,4.5654,4.5649,4.5707,4.5665,4.5744,4.5703,4.5726,4.5737,4.574,4.5744,4.5697,4.5768,4.5897,4.591,4.575,4.5748,4.5747,0,4.5312,4.5397,4.5469,4.5491,4.5537,4.557,4.5591,4.5624,4.5654,4.5694,4.5712,4.5758,4.5782,4.5816,4.5822,4.5791,4.59,4.5859,4.5905,4.5905,4.5927,4.5925,4.6059,4.5946,4.5945,4.5945,4.5945,0,4.542,4.5483,4.5503,4.5547,4.5615,4.5622,4.5689,4.5707,4.5737,4.5781,4.5773,4.5814,4.5821,4.5863,4.5868,4.5931,4.5942,4.5947,4.5947,4.5947,4.5946,4.5961,4.5954,4.5949,4.5948,4.5947,4.5947,0,4.5514,4.5531,4.5607,4.5646,4.5657,4.5706,4.5737,4.5778,4.5791,4.5847,4.5861,4.588,4.5929,4.5939,4.5997,4.6,4.6075,4.607,4.6063,4.6062,4.6106,4.6101,4.6253,4.6272,4.6148,4.6149,4.615,0,4.5581,4.5629,4.5673,4.5704,4.5726,4.5776,4.5806,4.5814,4.5846,4.589,4.5924,4.5973,4.6013,4.6092,4.6109,4.6153,4.6147,4.6197,4.6153,4.6151,4.6145,4.6141,4.6145,4.6205,4.6206,4.6207,4.6208,0,4.5697,4.5702,4.5749,4.5797,4.5835,4.5873,4.5909,4.5934,4.5946,4.5982,4.6034,4.6064,4.6124,4.6172,4.6215,4.6233,4.6222,4.6222,4.6235,4.6234,4.6227,4.6229,4.6084,4.6218,4.6217,4.6217,4.6216,4.6216,4.5777,4.5819,4.5856,4.5907,4.5936,4.5969,4.6009,4.6028,4.6072,4.6122,4.6124,4.6179,4.6212,4.6269,4.629,4.6332,4.6316,4.6334,4.6338,4.6342,4.6345,4.6223,4.634,4.634,4.6339,4.6339,4.6339,0,4.5891,4.5914,4.5962,4.6013,4.6053,4.6042,4.6081,4.6113,4.6163,4.6196,4.6235,4.6293,4.6339,4.6361,4.6405,4.6434,4.643,4.6446,4.6442,4.6446,4.6359,4.6342,4.6448,4.6448,4.6448,4.6448,4.6448,4.6448,4.5954,4.6023,4.6033,4.6115,4.6137,4.6194,4.6217,4.6247,4.6272,4.6339,4.6378,4.6392,4.6419,4.6466,4.6506,4.6511,4.6527,4.6544,4.6546,4.6464,4.6452,4.6442,4.6426,4.6548,4.6548,4.663,4.6631,4.6631]}]]